Weather in Shara-Azarga

Russia / Republic of Buryatia     50°28′53″N   103°03′00″E
temp.,
°C
wind,
m/s
gust,
m/s
humid.,
%
clouds,
%
prec.,
mm/h
press.,
hPa
HPBL,
m
14 april, wed
wed1423:00+2sse1153100 0.0 101110
02:00−3nne41092100 1.8 1017667
05:00−6nne4992100 1.9 1019767
08:00−6ne3887100 3.7 1020858
11:00−5nne5874100 1.0 10211066
14:00−3nne4655100 1.2 10191591
17:00−1nne3542100 0.1 10171834
20:00−4s117645 0.3 102012
15 april, thu
thu1523:00−11wsw119632 0.1 102514
02:00−12wsw219339 0.1 102423
05:00−9wsw2677100 0.0 1019143
08:00−5wsw31064100 0.0 1015755
11:000nw594786 0.0 10131959
14:00+2nnw4831100 0.3 10123202
17:00+1nw6123499 0.3 10152985
20:00−6nnw11695 0.3 102110
16 april, fri
fri1623:00−8n11825 0.0 102613
02:00−10wnw11895 0.0 102711
05:00−11nw119088 0.0 102811
08:00−6sw1168100 0.0 1025121
11:00+2sw34465 0.0 1020960
14:00+7wsw45365 0.0 10151676
17:00+8wsw46354 0.0 10131660
20:000wsw22700 0.0 101611
17 april, sat
sat1723:00−3wsw22772 0.0 101911
02:00−4w11793 0.0 101811
05:00−5w11825 0.0 101712
08:00+1sw12610 0.0 1013134
11:00+9wsw47340 0.0 10071295
14:00+12wsw58220 0.0 10031855
17:00+13w611210 0.0 10022123
20:00+6wnw22394 0.0 100310
18 april, sun
sun1823:00+3wsw114575 0.0 100410
02:00+2nw1147100 0.0 100410
05:000nw115672 0.0 100510
08:00+3nnw1147100 0.0 100463
11:00+11sw2527100 0.0 1001928
14:00+13wnw4625100 0.0 10012711
17:00+13nnw342596 0.0 10012687
20:00+6e22644 0.1 100615